Wind_Speed
5 5 5 4 4 4 4 4 4 4 4 5 5 6 7 8 9 10 11 11 12 12 13 13 14 14 13 11 10 7 5 4 4 4 5 5 5 5 6 7 8 8 9
5 5 4 4 4 4 4 4 4 4 4 4 5 6 7 7 8 9 10 10 11 11 12 12 13 13 13 12 11 9 7 4 3 3 3 4 4 4 5 5 6 7 8
5 5 5 4 4 4 4 4 4 4 4 5 6 6 7 8 9 9 10 10 11 11 11 12 12 12 12 12 11 10 8 6 4 2 2 2 2 3 4 4 5 6 7
5 4 4 4 4 4 4 4 4 5 6 6 7 7 8 9 9 10 10 11 11 11 11 11 11 12 12 12 11 10 9 7 5 3 2 1 1 1 3 4 4 5 6
5 5 5 5 5 5 5 6 6 7 7 8 8 9 9 10 10 11 12 12 12 12 12 12 12 12 12 12 11 11 9 8 6 4 3 2 1 1 2 3 4 5 6
5 6 6 6 6 7 7 8 9 9 10 10 11 11 12 12 13 13 14 14 14 14 14 13 13 13 13 13 13 12 10 9 8 6 4 3 2 2 3 3 4 5 6
7 7 8 8 9 9 10 11 11 11 12 12 13 13 13 14 15 15 16 16 16 16 16 15 15 14 15 15 15 14 12 11 10 8 7 5 4 4 4 5 5 5 6
8 9 9 11 11 12 13 13 13 13 14 14 14 15 15 15 16 17 17 18 18 19 19 18 17 17 17 17 17 16 15 14 13 11 10 8 7 6 6 7 6 7 7
9 10 11 12 12 13 14 15 15 15 15 16 16 17 17 18 18 18 19 19 20 20 21 20 20 20 20 20 20 20 19 17 16 15 13 12 10 9 8 8 8 8 8
11 12 13 14 14 15 17 17 17 17 17 18 18 19 19 20 20 20 21 22 22 22 22 22 23 22 23 23 23 23 22 21 20 18 17 16 14 13 12 11 10 10 10
14 15 16 16 16 17 18 19 19 19 19 19 20 21 22 22 22 22 23 23 23 23 23 23 24 24 25 25 25 26 25 25 23 22 21 20 18 17 16 14 13 13 12
17 18 19 18 19 20 21 21 22 22 22 22 23 23 24 25 25 24 24 25 25 25 25 25 24 25 26 27 27 27 28 29 27 25 24 23 22 21 20 18 17 16 15
21 21 22 22 22 23 24 24 25 25 25 25 25 26 26 27 27 27 27 27 27 28 28 28 27 25 25 27 28 28 29 30 30 28 27 26 25 24 23 22 21 19 18
25 25 25 26 26 26 26 26 27 27 27 28 28 28 29 29 30 30 29 29 29 29 30 30 30 29 27 26 27 28 29 30 31 31 29 28 27 27 26 25 24 23 21
28 27 28 29 28 28 28 28 29 29 29 29 30 31 31 32 32 32 31 31 32 32 32 32 32 31 30 29 28 28 28 30 32 32 31 30 29 28 27 27 26 26 25
28 28 29 28 28 29 30 30 31 32 32 32 33 34 34 34 34 34 34 34 34 34 33 33 32 32 31 30 30 29 29 30 31 33 33 32 31 30 29 28 28 28 27
26 27 27 27 28 29 30 31 33 33 35 35 36 36 37 36 36 35 35 35 35 36 35 34 34 33 32 32 31 30 31 30 31 33 33 33 33 32 30 28 28 28 29
24 25 26 27 28 30 31 33 34 35 37 38 38 39 38 38 37 37 36 36 36 36 36 36 36 35 34 33 32 31 32 32 32 33 33 33 34 33 31 29 28 29 29
24 25 27 28 30 32 33 35 36 38 39 39 39 39 39 38 38 38 37 37 37 37 37 37 37 36 35 34 33 31 30 30 32 33 33 33 34 34 32 31 30 30 29
24 26 28 30 32 33 35 36 37 38 39 39 39 39 39 39 39 39 39 38 38 37 37 37 37 36 36 35 33 31 30 29 31 32 33 32 33 34 33 32 31 30 30
25 27 29 31 32 34 35 36 37 38 38 39 39 38 38 37 38 38 39 39 38 38 38 37 37 36 36 34 32 31 31 31 30 32 34 33 34 35 34 33 32 32 32
24 25 27 29 31 32 34 35 36 36 36 37 37 37 36 36 36 36 37 37 37 37 37 37 37 36 35 35 33 30 30 30 31 32 33 35 35 35 35 35 34 33 33
21 23 24 26 28 30 32 33 34 35 35 36 36 36 35 34 33 33 34 35 35 35 35 35 35 35 34 34 33 30 29 29 28 31 33 34 34 35 35 35 34 33 33
20 22 23 24 26 28 29 31 32 32 33 33 33 34 34 34 33 33 32 32 32 32 33 33 33 33 33 32 32 31 30 29 28 28 30 32 33 33 34 35 34 33 33
21 22 24 25 26 28 29 30 31 32 32 33 33 34 34 34 34 33 32 30 30 30 30 30 30 30 31 31 31 30 30 29 29 29 30 31 32 32 33 34 34 34 34
24 26 27 28 30 31 32 33 33 34 34 34 35 35 35 36 36 35 34 33 31 30 30 30 30 29 29 29 30 30 30 31 30 30 30 32 32 32 32 33 35 34 35
Wind_Direction
346 347 341 325 318 316 315 317 324 333 346 355 0 1 0 358 359 0 2 2 2 2 3 5 5 7 7 7 7 5 6 13 25 43 58 71 87 107 121 124 124 123 123
350 350 333 312 303 301 300 301 307 316 329 339 343 345 345 345 346 347 348 350 352 354 354 355 357 358 360 1 2 3 0 2 12 33 55 69 89 109 125 133 131 126 122
359 351 329 311 304 297 293 295 303 315 326 333 335 335 335 335 334 334 334 334 337 340 342 343 345 347 348 351 354 358 0 358 355 7 38 62 86 114 131 139 140 133 126
355 343 330 314 304 298 294 298 308 316 321 325 327 326 326 325 323 321 320 320 321 324 325 326 329 332 334 336 340 345 349 351 348 343 346 6 110 138 148 155 152 144 135
336 324 319 312 305 301 300 304 307 309 312 315 315 315 314 312 310 308 308 307 307 308 309 309 311 314 317 320 322 326 330 334 336 333 321 293 241 196 183 175 168 159 148
307 304 305 301 298 298 302 307 308 307 306 306 306 306 306 304 302 300 298 297 297 297 296 296 296 296 299 301 304 306 311 313 316 318 308 285 259 235 219 202 187 178 167
296 297 299 296 295 295 298 302 302 301 301 302 303 303 302 301 300 299 297 294 292 290 289 288 285 284 284 286 288 290 292 295 297 297 297 284 262 247 236 224 209 198 189
299 300 299 298 297 298 299 300 300 298 299 301 301 301 301 300 299 298 297 295 292 288 284 282 279 275 275 275 276 277 277 278 281 282 280 276 265 253 247 237 225 215 206
294 295 296 299 299 299 298 300 300 298 298 300 301 301 302 302 302 300 298 295 294 291 286 280 277 273 269 268 267 267 267 268 269 271 271 269 265 257 251 247 237 227 219
294 295 297 300 301 300 299 299 301 299 300 301 300 301 301 302 302 301 301 298 294 292 288 282 277 273 268 265 264 261 260 260 261 261 263 262 261 258 252 249 243 236 228
292 293 294 297 300 300 298 298 301 301 301 300 299 299 300 300 301 301 300 301 297 293 289 285 280 275 269 264 263 260 257 255 254 253 254 256 255 255 252 248 244 240 235
289 288 288 292 297 298 297 296 299 299 299 299 298 298 299 299 298 298 299 298 296 293 291 287 285 280 272 264 261 259 256 253 251 249 248 249 250 251 250 247 245 243 238
282 283 286 288 289 291 292 293 294 294 295 296 295 297 295 295 296 296 295 294 293 291 290 290 289 286 279 269 262 259 256 253 249 248 245 245 246 248 248 245 244 242 240
285 286 285 284 284 286 287 287 289 290 292 292 290 292 292 293 293 294 293 290 288 286 286 286 288 287 285 277 268 264 260 255 250 248 246 242 242 245 245 244 242 241 240
286 287 287 285 284 285 286 288 287 288 288 287 289 289 290 291 291 291 289 286 285 284 282 282 282 283 284 280 274 269 267 262 252 247 244 241 238 239 241 242 240 239 238
288 288 288 288 288 288 288 288 289 290 291 291 290 290 290 290 289 288 286 285 283 282 281 280 280 279 281 281 279 273 267 265 258 249 243 239 237 237 240 240 239 239 238
289 288 288 289 289 289 288 288 289 290 291 291 291 291 291 291 289 288 286 284 282 281 279 278 278 278 280 281 281 275 268 266 261 252 243 238 235 235 237 239 238 237 236
288 289 289 288 288 289 289 290 290 290 290 290 291 292 291 291 290 288 286 283 281 280 279 278 277 278 279 280 280 276 268 265 260 251 243 237 234 233 235 237 233 233 234
289 289 290 290 290 290 290 290 290 290 290 291 291 291 291 290 289 287 285 283 281 280 279 278 279 279 280 280 278 275 269 264 256 250 243 238 235 232 233 234 234 233 231
292 293 293 293 292 292 292 292 292 292 292 292 291 291 290 289 287 286 284 282 281 279 278 277 277 278 279 279 276 273 268 262 254 248 241 237 235 232 231 233 233 231 230
294 294 294 295 295 295 294 294 294 293 293 292 291 290 289 287 285 284 282 281 280 279 277 276 275 275 276 277 275 272 267 259 253 245 239 237 235 232 232 231 231 231 228
296 296 296 296 296 296 296 296 295 295 294 293 292 291 289 287 285 282 281 280 279 278 276 275 274 273 274 273 271 270 265 258 252 246 242 238 235 232 232 231 231 230 228
303 303 302 301 300 299 298 298 298 297 297 296 295 294 292 291 288 285 283 281 279 277 275 273 272 271 270 270 267 266 263 258 253 247 243 237 233 232 232 231 229 229 227
312 310 308 307 305 304 303 302 301 300 299 298 298 297 296 295 293 290 287 284 281 277 274 272 271 270 268 266 264 262 260 256 251 246 239 236 232 231 231 230 228 225 223
318 317 315 313 311 310 309 308 306 305 303 302 300 300 298 296 295 293 291 287 283 279 275 273 270 268 266 264 261 258 254 252 248 244 240 236 233 231 230 227 224 221 219
326 325 323 321 319 317 315 313 311 309 307 305 303 301 299 297 295 293 291 288 284 279 275 272 270 266 264 262 259 255 251 247 244 242 240 237 233 230 228 225 223 220 218
Height
5922 5921 5920 5920 5920 5920 5919 5919 5918 5917 5916 5916 5915 5915 5914 5914 5913 5912 5911 5911 5910 5909 5907 5906 5904 5903 5901 5900 5899 5898 5898 5897 5897 5896 5896 5895 5895 5895 5895 5895 5894 5894 5894
5921 5920 5920 5920 5919 5919 5919 5918 5917 5916 5916 5915 5915 5914 5914 5913 5912 5912 5911 5910 5909 5908 5907 5906 5905 5904 5902 5901 5900 5899 5898 5897 5897 5897 5896 5896 5896 5896 5895 5896 5896 5895 5895
5920 5920 5920 5919 5919 5919 5918 5917 5917 5916 5915 5915 5914 5913 5913 5912 5912 5911 5910 5909 5908 5907 5907 5906 5905 5904 5903 5901 5900 5899 5898 5897 5897 5897 5897 5896 5896 5896 5896 5896 5897 5896 5896
5920 5920 5919 5919 5918 5918 5917 5917 5916 5916 5915 5914 5913 5912 5912 5911 5910 5909 5909 5908 5907 5906 5905 5905 5904 5903 5902 5901 5900 5899 5898 5898 5897 5897 5897 5897 5897 5897 5897 5897 5897 5897 5897
5920 5920 5919 5919 5918 5917 5917 5916 5915 5914 5914 5913 5912 5911 5910 5909 5908 5908 5907 5906 5905 5904 5903 5903 5902 5901 5901 5900 5899 5899 5898 5897 5897 5897 5897 5897 5897 5897 5897 5897 5898 5898 5898
5919 5919 5918 5917 5917 5916 5915 5914 5914 5913 5912 5911 5910 5909 5908 5907 5906 5905 5904 5903 5903 5902 5901 5900 5900 5899 5899 5898 5898 5898 5897 5897 5896 5896 5896 5896 5896 5897 5897 5897 5898 5898 5899
5918 5917 5917 5916 5915 5914 5913 5912 5911 5910 5909 5908 5907 5906 5905 5904 5903 5902 5901 5900 5900 5899 5898 5897 5897 5896 5896 5895 5895 5895 5896 5895 5895 5895 5895 5895 5896 5896 5897 5897 5897 5898 5899
5916 5915 5915 5914 5913 5912 5911 5910 5909 5907 5906 5905 5904 5903 5902 5901 5900 5899 5898 5897 5896 5895 5894 5894 5893 5893 5892 5892 5892 5892 5893 5893 5893 5893 5894 5894 5894 5895 5895 5896 5897 5897 5898
5914 5913 5912 5911 5910 5909 5908 5906 5905 5904 5903 5902 5901 5899 5898 5897 5896 5895 5894 5893 5892 5891 5890 5889 5889 5888 5888 5887 5887 5888 5888 5889 5890 5891 5891 5892 5892 5893 5894 5894 5895 5896 5897
5912 5910 5909 5908 5907 5906 5904 5903 5902 5901 5899 5898 5897 5895 5894 5893 5892 5891 5889 5888 5887 5886 5885 5884 5884 5883 5883 5882 5882 5882 5883 5884 5885 5887 5887 5888 5889 5890 5891 5892 5893 5894 5895
5909 5907 5906 5905 5904 5902 5901 5899 5898 5896 5895 5894 5892 5891 5890 5888 5887 5886 5884 5883 5881 5880 5879 5878 5878 5877 5877 5876 5876 5876 5877 5878 5879 5881 5883 5884 5885 5886 5887 5889 5890 5892 5893
5905 5903 5902 5901 5900 5898 5896 5895 5893 5892 5891 5889 5888 5886 5885 5883 5881 5880 5879 5877 5875 5874 5873 5872 5871 5870 5870 5869 5869 5870 5870 5871 5873 5875 5877 5879 5880 5881 5883 5885 5886 5888 5890
5900 5899 5897 5897 5895 5894 5892 5890 5888 5887 5886 5885 5883 5880 5879 5878 5876 5874 5873 5871 5869 5868 5866 5864 5863 5862 5862 5862 5862 5862 5863 5864 5866 5868 5870 5873 5874 5876 5878 5880 5882 5884 5886
5892 5892 5892 5891 5889 5887 5886 5884 5883 5881 5880 5879 5877 5875 5873 5872 5870 5868 5866 5864 5863 5861 5860 5858 5856 5855 5855 5854 5854 5855 5855 5856 5858 5860 5863 5865 5868 5870 5872 5874 5876 5879 5881
5887 5886 5885 5883 5882 5880 5879 5877 5876 5874 5873 5871 5870 5869 5867 5865 5863 5861 5859 5858 5856 5854 5853 5852 5850 5849 5848 5847 5847 5847 5848 5849 5850 5852 5854 5858 5861 5863 5866 5868 5871 5873 5876
5882 5880 5879 5877 5875 5874 5872 5870 5869 5867 5865 5864 5863 5861 5859 5857 5855 5853 5851 5850 5848 5846 5845 5844 5843 5842 5841 5840 5840 5839 5840 5841 5842 5844 5846 5849 5853 5856 5859 5862 5864 5867 5870
5876 5875 5873 5872 5870 5868 5865 5863 5861 5860 5858 5856 5854 5852 5850 5848 5847 5845 5843 5841 5839 5837 5836 5836 5835 5834 5834 5833 5832 5831 5831 5832 5833 5836 5838 5841 5845 5848 5852 5855 5858 5860 5864
5871 5869 5868 5866 5864 5862 5859 5857 5855 5853 5850 5848 5846 5844 5842 5840 5838 5836 5834 5832 5830 5829 5828 5827 5826 5826 5825 5825 5824 5823 5823 5823 5825 5827 5829 5833 5837 5840 5844 5847 5851 5854 5858
5866 5864 5862 5860 5858 5856 5853 5850 5848 5845 5843 5840 5838 5836 5833 5831 5829 5827 5825 5823 5821 5820 5819 5818 5817 5817 5816 5816 5815 5815 5815 5815 5817 5819 5821 5825 5829 5832 5836 5840 5844 5847 5851
5861 5859 5857 5855 5852 5849 5846 5843 5840 5837 5834 5832 5829 5827 5824 5822 5820 5817 5815 5813 5812 5811 5810 5809 5809 5808 5807 5807 5807 5807 5807 5807 5809 5811 5814 5817 5821 5825 5829 5833 5837 5840 5844
5857 5854 5851 5848 5845 5842 5838 5835 5832 5829 5826 5823 5820 5817 5815 5813 5810 5808 5805 5804 5802 5801 5801 5800 5799 5799 5798 5798 5798 5798 5799 5800 5801 5803 5806 5810 5814 5817 5822 5826 5830 5834 5837
5853 5850 5846 5843 5839 5835 5831 5827 5824 5821 5817 5814 5811 5808 5805 5803 5801 5798 5796 5794 5793 5792 5791 5790 5789 5789 5789 5789 5789 5790 5791 5793 5794 5796 5799 5802 5806 5810 5814 5818 5822 5826 5830
5848 5845 5841 5837 5833 5829 5824 5820 5816 5812 5809 5805 5801 5798 5795 5792 5790 5788 5786 5784 5783 5782 5781 5780 5780 5780 5780 5780 5780 5781 5783 5784 5786 5789 5791 5794 5798 5802 5806 5810 5814 5819 5823
5844 5840 5836 5832 5827 5823 5818 5813 5809 5805 5801 5797 5793 5789 5785 5782 5780 5778 5776 5775 5773 5772 5771 5770 5770 5770 5770 5771 5771 5772 5774 5776 5778 5781 5784 5787 5790 5794 5798 5802 5807 5811 5815
5838 5834 5830 5826 5821 5816 5811 5806 5801 5797 5792 5788 5784 5780 5777 5773 5770 5768 5766 5765 5763 5762 5761 5761 5761 5760 5761 5761 5762 5764 5766 5768 5770 5773 5776 5779 5783 5786 5790 5794 5799 5803 5808
5832 5828 5823 5818 5813 5808 5803 5798 5793 5788 5784 5779 5775 5771 5768 5764 5761 5758 5756 5755 5753 5752 5751 5751 5751 5751 5752 5752 5753 5755 5757 5759 5761 5764 5767 5771 5774 5778 5782 5786 5791 5796 5801